STARLINK-35520, 66133

Orbit data source: Space-Track

STARLINK-35520, 66133 is a payload satellite owned by SpaceX/Seattle (US) in LEO that was launched on Wed, 22 Oct 2025 UTC via an FALCON 9 launch vehicle from the Air Force Western Test Range (AFWTR). Payload-class satellites include a variety of spacecraft equipped with specific instruments for various scientific and technological missions. These include communications satellites like Starlink; space stations such as the ISS; scientific satellites like the Hubble; Earth observation satellites from companies like Planet Labs, Umbra, and HawkEye 360; GPS; miniature CubeSats for education and research; and military/defense satellites.

Loading next visibility...
Identifier
66133, 2025-237V
Orbit
LEO
Country
Flag of USUS
Related business
Manufacturer
SpaceX/Seattle
Mission
Operational Commercial Communications
Bus & Motor
STARLINK V2MO, Unknown motor
Mass
575 kg wet, ~530 kg dry
Launch date (UTC)
2025-10-22 (8 months ago)
Launch vehicle
FALCON 9
Launch site
Air Force Western Test Range (AFWTR)
Object type
Payload
Rocket body
Debris
Shape & HBR
Box + 2 Pan, 17.7 m
Radar Cross Section
36.964 m², Large (>1 m²)

Expand to show TLE details & history
Last TLE update: 14 hours ago

TLE from 14 hours ago
0 STARLINK-35520
1 66133U 25237V   26171.33126191  .00034186  00000-0  10179-2 0  9993
2 66133  53.1590 282.2808 0001130  88.3687 271.7445 15.34414486 38336
Epoch: 2026-06-20T07:57Z
TLE epoch observation values (Epoch: 2026-06-20T07:57:01.029Z)
Latitude
Longitude
-105.52091°
Altitude
463.538 km
Speed
7.636 km/s
True Right ascension
18h 49m 07s
True Declination
0° 00' 00"
Sunlit
Object was in full shadow at epoch
Visualization orbit readout
Latitude
Unknown
Longitude
Unknown
Altitude
Unknown
Speed
Unknown
Apparent Right ascension
Unknown
Apparent Declination
Unknown
Sunlit
N/A
Visualization observer readout
Local Sidereal Time
08:43:08
Azimuth
Unknown
Elevation
Unknown
Doppler factor
Unknown
Orbital elements
Apogee altitude
463.69 km
Perigee altitude
462.144 km
Semi-major axis
6,841.054 km
Eccentricity
0.00011
Inclination
53.159°
RAAN
282.2808°
Arg. of periapsis
88.3687°
True anomaly
271.73156°
Mean anomaly
271.7445°
Eccentric anomaly
271.73803°
Mean motion
3.83582 °/min
Orbital period
93.85 mins
BSTAR
0.0010179
Loading maneuver chart data...
Computing Atmospheric mass density...
Loading historical data...
Loading historical data...
Loading historical data...
Loading historical data...
Loading historical data...
Loading historical data...
Loading historical data...

Documentation

Showing up to 5 results
|